Weather History for Ahmedabad, India

Change the Weather History Date:

Thursday, July 18, 2013

  Actual Average Record
Temperature  
Mean Temperature 84 °F -  
Max Temperature 89 °F 87 °F 96 °F (2012)
Min Temperature 78 °F 76 °F 73 °F (2004)
Cooling Degree Days 18    
Growing Degree Days 34 (Base 50)    
Moisture  
Dew Point 79 °F    
Average Humidity 82    
Maximum Humidity 94    
Minimum Humidity 70    
Precipitation  
Precipitation 0.00 in 0.36 in - ()
Sea Level Pressure  
Sea Level Pressure 29.55 in    
Wind  
Wind Speed 6 mph ()    
Max Wind Speed 12 mph    
Max Gust Speed -    
Visibility 2.3 miles    
Events      
Averages and records for this station are not official NWS values.
T = Trace of Precipitation, MM = Missing Value Source: Averaged Metar Reports

Daily Weather History Graph

Daily Weather History Graph

Search for Another Location

Airport:

Trip Planner

Search our weather history database for the weather conditions in past years. The results will help you decide how hot, cold, wet, or windy it might be!

Date:

Astronomy

Jul. 18, 2013 Rise Set
Actual Time 6:04 AM IST 7:27 PM IST
Civil Twilight 5:39 AM IST 7:51 PM IST
Nautical Twilight 5:09 AM IST 8:21 PM IST
Astronomical Twilight 4:39 AM IST 8:51 PM IST
Moon 2:58 PM IST (7/18) 1:25 AM IST (7/18)
Length of Visible Light 14h 12m
Length of Day
13h 23m
Waxing Gibbous, 73% of the Moon is Illuminated
Jul 18
Waxing Gibbous
Jul 22
Full
Jul 29
Last Quarter
Aug 7
New
Aug 14
First Quarter

Hourly Weather History & Observations

Time (IST) Temp. Heat Index Dew Point Humidity Pressure Visibility Wind Dir Wind Speed Gust Speed Precip Events Conditions
12:10 AM 80.6 °F 88.1 °F 78.8 °F 94% 29.59 in 2.5 mi WSW 5.8 mph - N/A   Light Drizzle
12:40 AM 80.6 °F 88.1 °F 78.8 °F 94% 29.59 in 2.5 mi SW 6.9 mph - N/A   Light Drizzle
1:10 AM 80.6 °F 88.1 °F 78.8 °F 94% 29.59 in 2.5 mi SW 5.8 mph - N/A   Light Drizzle
1:40 AM 80.6 °F 88.1 °F 78.8 °F 94% 29.59 in 2.5 mi SSW 5.8 mph - N/A   Haze
2:10 AM 80.6 °F 88.1 °F 78.8 °F 94% 29.56 in 2.5 mi SW 5.8 mph - N/A   Haze
2:30 AM 81 °F - 78 °F 88% 29.57 in 1 mi WSW 4.6 mph - -   Haze
3:10 AM 80.6 °F 88.1 °F 78.8 °F 94% 29.56 in 2.5 mi WSW 6.9 mph - N/A   Haze
5:30 AM 81 °F - 78 °F 86% 29.56 in 1 mi SW 3.5 mph - -   Haze
5:40 AM 80.6 °F 88.1 °F 78.8 °F 94% 29.56 in 2.5 mi WSW 5.8 mph - N/A   Haze
6:10 AM 80.6 °F 88.1 °F 78.8 °F 94% 29.56 in 2.5 mi WSW 6.9 mph - N/A   Haze
6:40 AM 80.6 °F 88.1 °F 78.8 °F 94% 29.56 in 2.5 mi West 4.6 mph - N/A   Haze
7:40 AM 80.6 °F 88.1 °F 78.8 °F 94% 29.59 in 1.9 mi West 4.6 mph - N/A   Haze
8:10 AM 82.4 °F 92.4 °F 78.8 °F 89% 29.59 in 1.9 mi WSW 8.1 mph - N/A   Haze
8:30 AM 82 °F - 79 °F 87% 29.59 in 1 mi West 4.6 mph - -   Mist
8:40 AM 82.4 °F 92.4 °F 78.8 °F 89% 29.59 in 1.9 mi WSW 6.9 mph - N/A   Haze
9:10 AM 84.2 °F 96.1 °F 78.8 °F 84% 29.59 in 1.9 mi West 6.9 mph - N/A   Haze
9:40 AM 84.2 °F 96.1 °F 78.8 °F 84% 29.59 in 1.9 mi West 5.8 mph - N/A   Haze
10:40 AM 84.2 °F 96.1 °F 78.8 °F 84% 29.59 in 1.9 mi West 3.5 mph - N/A   Haze
11:10 AM 84.2 °F 96.1 °F 78.8 °F 84% 29.59 in 1.9 mi West 8.1 mph - N/A   Haze
11:30 AM 85 °F - 78 °F 76% 29.60 in 2 mi West 4.6 mph - -   Mist
11:40 AM 86.0 °F 96.9 °F 77.0 °F 74% 29.59 in 1.9 mi WNW 5.8 mph - N/A   Haze
12:10 PM 86.0 °F 99.3 °F 78.8 °F 79% 29.59 in 2.5 mi WNW 4.6 mph - N/A   Haze
12:40 PM 87.8 °F 104.9 °F 80.6 °F 79% 29.56 in 2.5 mi NW 6.9 mph - N/A   Haze
1:10 PM 87.8 °F 102.5 °F 78.8 °F 75% 29.56 in 2.5 mi West 6.9 mph - N/A   Haze
1:40 PM 86.0 °F 101.9 °F 80.6 °F 84% 29.56 in 2.5 mi WSW 8.1 mph - N/A   Haze
2:30 PM 87 °F - 79 °F 72%  in 1 mi SW 2.3 mph - -   Haze
2:40 PM 87.8 °F 104.9 °F 80.6 °F 79% 29.53 in 3.1 mi WSW 6.9 mph - N/A   Haze
3:10 PM 87.8 °F 104.9 °F 80.6 °F 79% 29.50 in 3.1 mi West 6.9 mph - N/A   Haze
4:10 PM 87.8 °F 102.5 °F 78.8 °F 75% 29.47 in 3.1 mi WSW 10.4 mph - N/A   Haze
4:40 PM 87.8 °F 102.5 °F 78.8 °F 75% 29.47 in 3.1 mi West 8.1 mph - N/A   Haze
5:10 PM 87.8 °F 102.5 °F 78.8 °F 75% 29.47 in 3.1 mi WSW 8.1 mph - N/A   Haze
5:30 PM 87 °F - 79 °F 72% 29.48 in 1 mi West 3.5 mph - -   Haze
5:40 PM 87.8 °F 104.9 °F 80.6 °F 79% 29.47 in 3.1 mi West 6.9 mph - N/A   Haze
6:10 PM 89.6 °F 104.7 °F 78.8 °F 70% 29.47 in 3.1 mi WSW 9.2 mph - N/A   Haze
6:40 PM 87.8 °F 99.7 °F 77.0 °F 70% 29.47 in 3.1 mi WSW 9.2 mph - N/A   Haze
7:10 PM 87.8 °F 99.7 °F 77.0 °F 70% 29.50 in 3.1 mi WSW 6.9 mph - N/A   Haze
7:40 PM 87.8 °F 99.7 °F 77.0 °F 70% 29.50 in 2.5 mi WSW 9.2 mph - N/A   Haze
8:10 PM 86.0 °F 99.3 °F 78.8 °F 79% 29.50 in 2.5 mi SW 8.1 mph - N/A   Haze
8:30 PM 85 °F - 80 °F 80% 29.51 in 1 mi West 4.6 mph - -   Haze
8:40 PM 86.0 °F 101.9 °F 80.6 °F 84% 29.50 in 2.5 mi SW 9.2 mph - N/A   Haze
9:10 PM 84.2 °F 96.1 °F 78.8 °F 84% 29.53 in 2.5 mi SW 9.2 mph - N/A   Haze
9:40 PM 84.2 °F 94.1 °F 77.0 °F 79% 29.53 in 2.5 mi WSW 9.2 mph - N/A   Haze
10:10 PM 84.2 °F 94.1 °F 77.0 °F 79% 29.53 in 2.5 mi WSW 10.4 mph - N/A   Haze
10:40 PM 84.2 °F 94.1 °F 77.0 °F 79% 29.56 in 2.5 mi WSW 11.5 mph - N/A   Haze
11:10 PM 82.4 °F 90.9 °F 77.0 °F 84% 29.56 in 2.5 mi WSW 10.4 mph - N/A   Haze
11:30 PM 83 °F - 76 °F 74% 29.51 in 1 mi SW 5.8 mph - -   Haze